Location: ??
(35.5672°N, 139.6509°E)
Time: 11:26:24
(UTC+00:00)

NOSS 3-2 (C) - Pass Details

Date: 03 August 2024
Orbit: 707 x 1504 km, 63.4° (Epoch: 11 August)

Event Time Altitude Azimuth Distance (km) Brightness Sun altitude
Rises 13:46:28 0° 326° (NNW) 4,066 7.7 -35.2°
Reaches altitude 10° 13:49:02 10° 326° (NW) 3,202 6.9 -35.4°
Enters shadow 13:56:22 74° 281° (W) 1,424 4.2 -35.8°
